Zurück zum Katalog

ATLAS D DEB

AktivLEO
NORAD 2327·DEBRIS·🇺🇸 United States

Gestartet Jul 14, 1966 von Vandenberg Space Force Base

Loading…

Nächste Überflüge (nächste 24 Stunden)

TLE

AktuellSource: Space-Track

Epoche: Sep 14, 2026, 14:42 UTC

1 02327U 66063B   26257.61254963  .00001143  00000-0  52371-3 0  9993
2 02327 144.1955  26.9851 0031443  92.2976 268.1315 14.05806072 50673

Verfolge ATLAS D DEB in Echtzeit mit AllMySat

Download on the App Store